"2010-03-28 00:00:00",1800277,18.67,50.95,3.096,0.754,9.91,101.8133,3.927,5.151,34.64,0,109.9,13.43,4.69,13.0
"2010-03-28 00:00:30",1800278,18.21,52.42,3.154,0.805,9.94,101.8125,3.924,5.136,33.89,0,109.9,13.43,4.69,14.4
"2010-03-28 00:01:00",1800279,18.22,52.94,3.219,0.488,10.14,101.8125,3.924,5.155,34,0,109.9,13.44,4.69,14.9
"2010-03-28 00:01:30",1800280,18.13,53.41,2.36,0.893,9.9,101.8145,3.929,5.164,34.38,0,109.9,13.44,4.70,15.4
"2010-03-28 00:02:00",1800281,18.43,53.41,3.524,0.717,9.97,101.8139,3.928,5.163,34.14,0,109.9,13.44,4.69,15.4
"2010-03-28 00:02:30",1800282,18.3,52.93,3.297,0.889,10.03,101.817,3.936,5.162,33.98,0,109.9,13.44,4.70,14.9
"2010-03-28 00:03:00",1800283,18.08,53.61,3.008,0.713,10.09,101.8178,3.938,5.159,34.76,0,109.9,13.45,4.70,15.6
"2010-03-28 00:03:30",1800284,17.44,55.4,3.189,0.964,9.86,101.8218,3.948,5.171,36.37,0,109.9,13.45,4.71,17.4
"2010-03-28 00:04:00",1800285,17.59,53.99,2.982,0.981,9.81,101.819,3.941,5.185,37.17,0,109.9,13.45,4.71,16.0
"2010-03-28 00:04:30",1800286,17.93,55.11,3.395,0.904,9.8,101.8142,3.929,5.167,37.13,0,109.9,13.45,4.69,17.1
"2010-03-28 00:05:00",1800287,17.89,52.83,1.805,0.755,10.03,101.8136,3.927,5.165,36.25,0,109.9,13.45,4.69,14.8
"2010-03-28 00:05:30",1800288,18.31,53.02,3.151,0.824,9.9,101.8102,3.919,5.152,35.3,0,109.9,13.45,4.68,15.0
"2010-03-28 00:06:00",1800289,17.86,53.55,3.57,0.753,9.91,101.8031,3.901,5.172,36.83,0,109.9,13.45,4.67,15.5
"2010-03-28 00:06:30",1800290,18.02,52.61,4.105,0.785,9.96,101.7981,3.888,5.161,35.72,0,109.9,13.45,4.65,14.6
"2010-03-28 00:07:00",1800291,17.73,54.44,3.522,0.658,10.07,101.7975,3.886,5.156,36.97,0,109.9,13.45,4.65,16.4
"2010-03-28 00:07:30",1800292,17.7,53.84,4.359,0.606,9.92,101.7975,3.886,5.155,38.97,0,109.9,13.45,4.65,15.8
"2010-03-28 00:08:00",1800293,17.7,53.77,4.431,0.65,9.94,101.7975,3.886,5.165,38.17,0,109.9,13.45,4.65,15.8
"2010-03-28 00:08:30",1800294,18.1,54.47,3.26,0.862,9.83,101.7972,3.885,5.153,37.9,0,109.9,13.45,4.65,16.5
"2010-03-28 00:09:00",1800295,17.99,54.95,3.566,0.732,10,101.7975,3.886,5.142,38.45,0,109.9,13.45,4.65,17.0
"2010-03-28 00:09:30",1800296,17.47,55.16,3.659,1.061,9.85,101.7972,3.885,5.148,37.06,0,109.9,13.45,4.65,17.2
"2010-03-28 00:10:00",1800297,17.06,55.01,3.183,0.976,9.78,101.7972,3.885,5.151,37.94,0,109.9,13.45,4.65,17.0
"2010-03-28 00:10:30",1800298,17.49,54.48,2.973,0.784,9.78,101.7972,3.885,5.142,36.99,0,109.9,13.45,4.65,16.5
"2010-03-28 00:11:00",1800299,16.95,56.39,3.412,1.013,9.85,101.7975,3.886,5.128,36.57,0,109.9,13.45,4.65,18.4
"2010-03-28 00:11:30",1800300,17.53,54.05,2.966,0.889,9.76,101.7975,3.886,5.138,36.76,0,109.9,13.45,4.65,16.0
"2010-03-28 00:12:00",1800301,18,53.85,3.571,0.768,9.92,101.7972,3.885,5.142,35.7,0,109.9,13.45,4.65,15.8
"2010-03-28 00:12:30",1800302,18,52.23,3.614,0.684,9.96,101.7978,3.887,5.12,35.31,0,109.9,13.44,4.65,14.2
"2010-03-28 00:13:00",1800303,18.04,52.7,3.235,0.581,10.12,101.7975,3.886,5.142,35.57,0,109.9,13.44,4.65,14.7
"2010-03-28 00:13:30",1800304,17.72,51.76,3.226,0.848,9.94,101.7975,3.886,5.121,36.11,0,109.9,13.44,4.65,13.8
"2010-03-28 00:14:00",1800305,17.44,52.71,2.207,0.771,9.91,101.7978,3.887,5.137,36.47,0,109.9,13.44,4.65,14.7
"2010-03-28 00:14:30",1800306,17.38,54.64,2.919,0.837,9.85,101.7987,3.889,5.127,36.59,0,109.9,13.44,4.65,16.6
"2010-03-28 00:15:00",1800307,17.08,55.19,2.819,0.769,10,101.7972,3.885,5.151,37.05,0,109.9,13.44,4.65,17.2
"2010-03-28 00:15:30",1800308,17.39,54.71,3.037,0.777,9.77,101.7975,3.886,5.137,37.67,0,109.9,13.43,4.65,16.7
"2010-03-28 00:16:00",1800309,17.73,54.72,3.666,0.691,9.9,101.7981,3.888,5.144,38.51,0,109.9,13.44,4.65,16.7
"2010-03-28 00:16:30",1800310,17.87,58.14,3.879,0.902,9.85,101.7975,3.886,5.128,38.87,0,109.9,13.44,4.65,20.1
"2010-03-28 00:17:00",1800311,17.89,56.56,3.555,0.609,10.11,101.7987,3.889,5.119,38.17,0,109.9,13.44,4.65,18.6
"2010-03-28 00:17:30",1800312,17.38,57.46,3.579,0.663,9.93,101.7992,3.891,5.118,37.68,0,109.9,13.44,4.66,19.5
"2010-03-28 00:18:00",1800313,16.81,58.3,3.808,0.817,9.97,101.7987,3.889,5.125,38.89,0,109.9,13.45,4.65,20.3
"2010-03-28 00:18:30",1800314,16.34,56.95,3.37,0.789,9.77,101.7922,3.873,5.12,38.85,0,109.9,13.45,4.64,19.0
"2010-03-28 00:19:00",1800315,16.52,58.76,5.417,0.811,10.06,101.7845,3.853,5.113,39.3,0,109.9,13.45,4.62,20.8
"2010-03-28 00:19:30",1800316,16.09,59.12,4.73,1.277,9.64,101.7778,3.836,5.111,40.74,0,109.9,13.45,4.60,21.1
"2010-03-28 00:20:00",1800317,16.9,57.19,3.167,0.846,9.65,101.7699,3.816,5.12,39.68,0,109.9,13.45,4.58,19.2
"2010-03-28 00:20:30",1800318,16.58,54.87,2.868,0.789,9.74,101.7688,3.813,5.091,38.61,0,109.9,13.45,4.58,16.9
"2010-03-28 00:21:00",1800319,17.16,54.75,2.759,0.724,9.86,101.7665,3.807,5.08,37.71,0,109.9,13.45,4.57,16.8
"2010-03-28 00:21:30",1800320,17.04,53.5,3.297,0.705,9.78,101.7693,3.814,5.076,37.58,0,109.9,13.45,4.58,15.5
"2010-03-28 00:22:00",1800321,17.03,52.1,3.914,0.758,9.77,101.7696,3.815,5.103,37.95,0,109.9,13.45,4.58,14.1
"2010-03-28 00:22:30",1800322,16.32,54.72,2.981,0.987,9.71,101.7671,3.808,5.073,38.25,0,109.9,13.45,4.57,16.7
"2010-03-28 00:23:00",1800323,17.02,52.41,4.022,0.408,9.91,101.7676,3.81,5.083,38.54,0,109.9,13.45,4.58,14.4
"2010-03-28 00:23:30",1800324,16.95,53.71,3.53,0.656,9.72,101.7702,3.816,5.086,38.85,0,109.9,13.45,4.58,15.7
"2010-03-28 00:24:00",1800325,16.56,52.87,3.165,0.829,9.62,101.7699,3.816,5.078,38.55,0,109.9,13.45,4.58,14.9
"2010-03-28 00:24:30",1800326,16.6,53.18,3.623,0.84,9.72,101.7705,3.817,5.06,38.72,0,109.9,13.45,4.58,15.2
"2010-03-28 00:25:00",1800327,17.65,52.83,2.852,0.799,9.82,101.7722,3.822,5.067,38.27,0,109.9,13.45,4.59,14.8
"2010-03-28 00:25:30",1800328,17.91,54.49,2.986,0.8,9.73,101.7714,3.819,5.056,38.44,0,109.9,13.45,4.58,16.5
"2010-03-28 00:26:00",1800329,17.92,52.86,2.857,0.739,9.86,101.7728,3.823,5.073,37.05,0,109.9,13.45,4.59,14.9
"2010-03-28 00:26:30",1800330,17.66,51.72,3.015,0.985,9.83,101.7737,3.825,5.051,37.23,0,109.9,13.45,4.59,13.7
"2010-03-28 00:27:00",1800331,17.4,52.69,2.878,0.718,9.98,101.7716,3.82,5.057,37.9,0,109.9,13.45,4.59,14.7
"2010-03-28 00:27:30",1800332,17.67,51.54,3.122,0.771,9.86,101.7728,3.823,5.05,37.9,0,109.9,13.45,4.59,13.5
"2010-03-28 00:28:00",1800333,17.2,52.83,3.76,0.866,9.89,101.7734,3.825,5.071,37.01,0,109.9,13.45,4.59,14.8
"2010-03-28 00:28:30",1800334,17.68,50.82,3.263,0.825,9.99,101.7734,3.825,5.042,37.16,0,109.9,13.45,4.59,12.8
"2010-03-28 00:29:00",1800335,17.79,51.86,1.804,0.78,10.24,101.7729,3.823,5.035,36.36,0,109.9,13.45,4.59,13.9
"2010-03-28 00:29:30",1800336,17.12,52.4,3.526,0.866,10.1,101.7681,3.811,5.04,36.9,0,109.9,13.45,4.58,14.4
"2010-03-28 00:30:00",1800337,16.36,52.97,3.304,0.653,10.06,101.7602,3.791,5.059,38.29,0,109.9,13.45,4.56,15.0
"2010-03-28 00:30:30",1800338,16.73,51.73,3.892,0.652,10,101.75,3.765,5.031,38.64,0,109.9,13.45,4.53,13.7
"2010-03-28 00:31:00",1800339,16.97,56.75,4.612,0.393,10.03,101.7455,3.753,5.015,38.45,0,109.9,13.45,4.52,18.8
"2010-03-28 00:31:30",1800340,16.45,54.8,3.535,1.016,9.86,101.7472,3.758,5.024,39.77,0,109.9,13.45,4.52,16.8
"2010-03-28 00:32:00",1800341,17.36,53.29,3.565,0.674,9.93,101.7489,3.762,5.019,37.91,0,109.9,13.45,4.53,15.3
"2010-03-28 00:32:30",1800342,17.3,54.37,3.918,0.651,9.88,101.7501,3.765,5.011,37.53,0,109.9,13.45,4.53,16.4
"2010-03-28 00:33:00",1800343,16.92,55.15,2.905,0.708,10.01,101.7504,3.766,4.989,38.1,0,109.9,13.45,4.53,17.2
"2010-03-28 00:33:30",1800344,16.71,53.07,3.222,0.838,9.86,101.7513,3.768,5.001,38.82,0,109.9,13.45,4.53,15.1
"2010-03-28 00:34:00",1800345,16.89,53.83,3.868,0.771,9.92,101.7453,3.753,4.976,39.29,0,109.9,13.45,4.52,15.8
"2010-03-28 00:34:30",1800346,15.97,54.34,3.83,0.718,9.94,101.7391,3.737,4.976,39.98,0,109.9,13.45,4.50,16.3
"2010-03-28 00:35:00",1800347,16.65,54.26,1.986,0.831,10.07,101.7326,3.721,4.981,39.05,0,109.9,13.45,4.49,16.3
"2010-03-28 00:35:30",1800348,16.34,54.1,3.879,0.725,9.86,101.721,3.691,4.966,39.39,0,109.9,13.45,4.46,16.1
"2010-03-28 00:36:00",1800349,16.6,52.81,3.28,1.002,9.83,101.7196,3.687,4.971,39.72,0,109.9,13.45,4.45,14.8
"2010-03-28 00:36:30",1800350,16.44,54.67,3.295,0.721,9.83,101.7211,3.691,4.951,39.72,0,109.9,13.45,4.46,16.7
"2010-03-28 00:37:00",1800351,16.97,53.17,2.459,0.917,9.98,101.7208,3.69,4.94,38.96,0,109.9,13.45,4.46,15.2
"2010-03-28 00:37:30",1800352,17.34,53.31,3.95,0.727,9.95,101.7211,3.691,4.938,39.11,0,109.9,13.45,4.46,15.3
"2010-03-28 00:38:00",1800353,17.03,54.02,3.257,0.921,9.82,101.7211,3.691,4.934,38.54,0,109.9,13.46,4.46,16.0
"2010-03-28 00:38:30",1800354,17.37,52.86,3.139,0.782,9.88,101.7222,3.694,4.937,37.91,0,109.9,13.46,4.46,14.9
"2010-03-28 00:39:00",1800355,17.28,53.13,2.851,0.691,10.03,101.7237,3.698,4.921,37.88,0,109.9,13.45,4.46,15.1
"2010-03-28 00:39:30",1800356,17.16,51.08,2.754,0.87,9.97,101.7237,3.698,4.925,37.91,0,109.9,13.46,4.46,13.1
"2010-03-28 00:40:00",1800357,17.36,53.18,3.053,0.694,9.97,101.7237,3.698,4.934,37.24,0,109.9,13.46,4.46,15.2
"2010-03-28 00:40:30",1800358,16.84,52.25,3.516,0.942,9.94,101.7234,3.697,4.916,38.42,0,109.9,13.46,4.46,14.2
"2010-03-28 00:41:00",1800359,17.29,52.49,2.65,0.695,10.08,101.7228,3.695,4.915,37.09,0,109.9,13.46,4.46,14.5
"2010-03-28 00:41:30",1800360,17.26,51.55,2.704,0.874,10.02,101.7248,3.701,4.924,36.84,0,109.9,13.46,4.47,13.5
"2010-03-28 00:42:00",1800361,17.29,52.32,2.908,0.831,10.06,101.7254,3.702,4.943,36.33,0,109.9,13.46,4.47,14.3
"2010-03-28 00:42:30",1800362,17.47,51.92,3.636,0.763,10,101.7268,3.706,4.933,36.28,0,109.9,13.46,4.47,13.9
"2010-03-28 00:43:00",1800363,17.48,53.23,2.847,0.618,10.07,101.7282,3.709,4.923,36.58,0,109.9,13.46,4.47,15.2
"2010-03-28 00:43:30",1800364,17.17,52.99,2.938,0.831,9.9,101.7364,3.73,4.927,36.92,0,109.9,13.46,4.50,15.0
"2010-03-28 00:44:00",1800365,17,52.39,2.94,0.798,9.96,101.7387,3.736,4.942,37.36,0,109.9,13.46,4.50,14.4
"2010-03-28 00:44:30",1800366,16.92,52.37,3.692,0.691,9.88,101.743,3.747,4.94,37.38,0,109.9,13.46,4.51,14.4
"2010-03-28 00:45:00",1800367,17.03,51.66,3.534,0.553,10.17,101.741,3.742,4.955,37.66,0,109.9,13.46,4.51,13.7
"2010-03-28 00:45:30",1800368,16.81,52.29,3.288,0.874,9.86,101.7421,3.745,4.952,37.81,0,109.9,13.45,4.51,14.3
"2010-03-28 00:46:00",1800369,16.85,51.85,2.628,0.798,9.91,101.7379,3.734,4.961,37.32,0,109.9,13.45,4.50,13.8
"2010-03-28 00:46:30",1800370,17.07,51.9,3.541,0.692,9.91,101.7387,3.736,4.94,36.91,0,109.9,13.45,4.50,13.9
"2010-03-28 00:47:00",1800371,16.85,49.69,3.796,0.469,10.28,101.7441,3.75,4.948,36.52,0,109.9,13.45,4.52,11.7
"2010-03-28 00:47:30",1800372,16.19,52.95,3.124,0.816,9.85,101.7455,3.753,4.954,37.68,0,109.9,13.45,4.52,15.0
"2010-03-28 00:48:00",1800373,16.6,51.97,2.706,0.789,9.9,101.7447,3.751,4.959,37.19,0,109.9,13.45,4.52,14.0
"2010-03-28 00:48:30",1800374,16.8,53.34,3.978,0.69,9.95,101.7444,3.751,4.956,36.7,0,109.9,13.45,4.52,15.3
"2010-03-28 00:49:00",1800375,16.9,52.04,3.48,0.543,10.09,101.7438,3.749,4.956,36.71,0,109.9,13.45,4.51,14.0
"2010-03-28 00:49:30",1800376,17.13,52.16,3.505,0.771,9.99,101.7447,3.751,4.949,36.84,0,109.9,13.45,4.52,14.2
"2010-03-28 00:50:00",1800377,17.06,52.33,2.727,0.858,9.97,101.7464,3.756,4.96,36.41,0,109.9,13.45,4.52,14.3
"2010-03-28 00:50:30",1800378,17.22,51.63,3.432,0.666,10.04,101.7469,3.757,4.961,36.38,0,109.9,13.46,4.52,13.6
"2010-03-28 00:51:00",1800379,17.3,52.94,2.856,0.65,10.16,101.7484,3.761,4.963,36.33,0,109.8,13.46,4.53,14.9
"2010-03-28 00:51:30",1800380,17.11,52.36,2.682,0.775,9.99,101.752,3.77,4.959,36.39,0,109.8,13.46,4.54,14.4
"2010-03-28 00:52:00",1800381,17.02,52.17,3.133,0.778,9.99,101.7526,3.772,4.981,36.55,0,109.9,13.46,4.54,14.2
"2010-03-28 00:52:30",1800382,17.3,51.53,3.253,0.767,10.16,101.7529,3.772,4.975,36.05,0,109.8,13.46,4.54,13.5
"2010-03-28 00:53:00",1800383,17.19,51.93,2.72,0.668,10.16,101.7566,3.782,4.974,36.22,0,109.8,13.46,4.55,13.9
"2010-03-28 00:53:30",1800384,17.29,51.13,4.245,0.599,10.2,101.7602,3.791,4.964,36.27,0,109.8,13.46,4.56,13.1
"2010-03-28 00:54:00",1800385,16.96,51.08,3.745,0.606,10.09,101.7608,3.792,4.992,36.56,0,109.8,13.46,4.56,13.1
"2010-03-28 00:54:30",1800386,17.07,50.83,2.905,0.875,10.17,101.7625,3.797,4.969,36.28,0,109.8,13.46,4.56,12.8
"2010-03-28 00:55:00",1800387,17.08,50.63,2.8,0.659,10.27,101.7628,3.798,4.981,35.8,0,109.8,13.46,4.56,12.6
"2010-03-28 00:55:30",1800388,17.1,50.89,2.928,0.746,10.1,101.7636,3.8,4.983,35.83,0,109.8,13.46,4.56,12.9
"2010-03-28 00:56:00",1800389,17,50.56,3.09,0.801,10.08,101.7639,3.8,4.995,35.87,0,109.8,13.46,4.57,12.6
"2010-03-28 00:56:30",1800390,16.84,51.27,2.881,0.8,10.04,101.7639,3.8,4.991,35.89,0,109.8,13.46,4.57,13.3
"2010-03-28 00:57:00",1800391,17.05,52.03,3.382,0.516,10.27,101.7639,3.8,4.995,35.98,0,109.8,13.46,4.57,14.0
"2010-03-28 00:57:30",1800392,16.81,51.02,2.324,0.856,10.03,101.7639,3.8,4.989,36.11,0,109.8,13.46,4.57,13.0
"2010-03-28 00:58:00",1800393,16.7,49.78,2.807,0.76,10.03,101.7639,3.8,5.008,35.98,0,109.8,13.46,4.57,11.8
"2010-03-28 00:58:30",1800394,17.19,50.16,2.828,0.744,10.07,101.7639,3.8,5.006,35.92,0,109.8,13.46,4.57,12.2
"2010-03-28 00:59:00",1800395,17.22,48.86,3.013,0.732,10.27,101.7639,3.8,5,36.01,0,109.8,13.46,4.57,10.9
"2010-03-28 00:59:30",1800396,16.67,47.65,3.121,0.906,10.19,101.7639,3.8,5.018,35.88,0,109.8,13.46,4.57,9.7
"2010-03-28 01:00:00",1800397,16.93,47.52,2.768,0.962,10.14,101.7639,3.8,5.017,36.15,0,109.8,13.46,4.57,9.5
"2010-03-28 01:00:30",1800398,17.18,47.66,2.886,0.824,10.29,101.7639,3.8,5.011,36.25,0,109.8,13.46,4.57,9.7
"2010-03-28 01:01:00",1800399,16.99,47.9,2.84,0.731,10.41,101.7639,3.8,5.01,36.15,0,109.8,13.46,4.57,9.9
"2010-03-28 01:01:30",1800400,17.03,47.21,3.764,0.766,10.29,101.7639,3.8,5.007,36.2,0,109.8,13.46,4.57,9.2
"2010-03-28 01:02:00",1800401,16.97,47.57,2.81,1.077,10.33,101.7639,3.8,5.042,36.29,0,109.8,13.46,4.57,9.6
"2010-03-28 01:02:30",1800402,17.03,47.92,2.735,0.862,10.4,101.7639,3.8,5.034,36.19,0,109.8,13.46,4.57,9.9
"2010-03-28 01:03:00",1800403,17.32,48.71,2.572,0.664,10.45,101.7639,3.8,5.037,36.25,0,109.8,13.46,4.57,10.7
"2010-03-28 01:03:30",1800404,17.06,48.22,2.784,0.887,10.3,101.7639,3.8,5.036,36.46,0,109.8,13.46,4.57,10.2
"2010-03-28 01:04:00",1800405,17.64,47.68,2.971,0.875,10.41,101.7639,3.8,5.039,36.27,0,109.8,13.46,4.57,9.7
"2010-03-28 01:04:30",1800406,17.58,48.23,2.901,0.787,10.45,101.7639,3.8,5.028,36.14,0,109.8,13.46,4.57,10.2
"2010-03-28 01:05:00",1800407,17.62,48.99,2.791,0.804,10.56,101.7639,3.8,5.039,36.23,0,109.8,13.46,4.57,11.0
"2010-03-28 01:05:30",1800408,17.27,47.93,3.374,0.694,10.47,101.7639,3.8,5.026,36.63,0,109.8,13.46,4.57,9.9
"2010-03-28 01:06:00",1800409,17.42,48.42,2.33,0.734,10.42,101.7639,3.8,5.037,36.45,0,109.8,13.46,4.57,10.4
"2010-03-28 01:06:30",1800410,17.22,48.36,3.234,0.668,10.48,101.7639,3.8,5.008,36.43,0,109.8,13.46,4.57,10.4
"2010-03-28 01:07:00",1800411,17.17,48.16,2.891,0.863,10.67,101.7631,3.798,5.034,36.47,0,109.8,13.46,4.56,10.2
"2010-03-28 01:07:30",1800412,17.13,48.04,2.89,0.96,10.57,101.7588,3.787,5.019,36.5,0,109.8,13.46,4.55,10.0
"2010-03-28 01:08:00",1800413,17.35,47.37,3.077,0.8,10.61,101.7568,3.782,5.028,36.43,0,109.8,13.46,4.55,9.4
"2010-03-28 01:08:30",1800414,16.87,46.77,2.616,1.163,10.54,101.756,3.78,5.02,36.45,0,109.8,13.47,4.55,8.8
"2010-03-28 01:09:00",1800415,17.15,47.31,1.771,0.807,10.71,101.7571,3.783,5.017,36.57,0,109.8,13.47,4.55,9.3
"2010-03-28 01:09:30",1800416,16.5,46.56,2.907,0.993,10.6,101.7608,3.792,5.006,36.35,0,109.8,13.47,4.56,8.6
"2010-03-28 01:10:00",1800417,16.09,45.64,2.867,1.106,10.44,101.7639,3.8,5.019,36.58,0,109.8,13.47,4.57,7.6
"2010-03-28 01:10:30",1800418,16.89,46.1,3.945,1.142,10.42,101.7639,3.8,5.012,36.9,0,109.8,13.47,4.57,8.1
"2010-03-28 01:11:00",1800419,16.75,46.38,3.511,0.797,10.61,101.7639,3.8,5.019,37.01,0,109.8,13.47,4.57,8.4
"2010-03-28 01:11:30",1800420,16.96,45.71,4.265,0.989,10.61,101.7631,3.798,5.006,36.69,0,109.8,13.47,4.56,7.7
"2010-03-28 01:12:00",1800421,17.3,47.93,3.222,0.831,10.47,101.7631,3.798,5.026,37.07,0,109.8,13.47,4.56,9.9
"2010-03-28 01:12:30",1800422,17.62,47.04,3.525,0.854,10.51,101.7583,3.786,5.015,37.22,0,109.8,13.47,4.55,9.0
"2010-03-28 01:13:00",1800423,17.63,48.26,2.887,0.859,10.49,101.7543,3.776,5.023,37.32,0,109.8,13.47,4.54,10.3
"2010-03-28 01:13:30",1800424,16.91,47.6,3.09,0.894,10.41,101.7396,3.738,5.019,37.8,0,109.8,13.47,4.50,9.6
"2010-03-28 01:14:00",1800425,16.95,46.72,3.301,1.417,10.48,101.7306,3.715,5.015,37.59,0,109.8,13.47,4.48,8.7
"2010-03-28 01:14:30",1800426,17.3,47.73,3.491,0.672,10.34,101.7323,3.72,4.999,37.57,0,109.8,13.47,4.48,9.7
"2010-03-28 01:15:00",1800427,17.6,47.36,3.05,0.713,10.58,101.7334,3.723,4.991,37.97,0,109.8,13.47,4.49,9.4
"2010-03-28 01:15:30",1800428,17.22,47.38,3.523,0.771,10.48,101.734,3.724,4.977,37.81,0,109.8,13.47,4.49,9.4
"2010-03-28 01:16:00",1800429,16.89,48.17,2.884,0.899,10.38,101.7323,3.72,4.983,38.04,0,109.8,13.47,4.48,10.2
"2010-03-28 01:16:30",1800430,17.54,48.06,3.043,0.853,10.4,101.723,3.696,4.955,38.12,0,109.8,13.47,4.46,10.1
"2010-03-28 01:17:00",1800431,17.89,47.98,2.441,0.744,10.53,101.7106,3.664,4.947,38.14,0,109.8,13.47,4.43,10.0
"2010-03-28 01:17:30",1800432,18.01,47.25,3.583,0.979,10.54,101.7038,3.647,4.947,38.01,0,109.8,13.47,4.41,9.2
"2010-03-28 01:18:00",1800433,18.78,47.29,4.126,0.375,10.57,101.7056,3.651,4.936,37.61,0,109.8,13.47,4.42,9.3
"2010-03-28 01:18:30",1800434,17.9,46.9,2.89,1.086,10.75,101.7053,3.651,4.919,37.17,0,109.8,13.47,4.42,8.9
"2010-03-28 01:19:00",1800435,18.81,48.26,2.187,0.829,10.76,101.7084,3.659,4.91,36.83,0,109.8,13.47,4.42,10.3
"2010-03-28 01:19:30",1800436,18.65,48.17,2.722,0.803,10.71,101.709,3.66,4.908,36.66,0,109.8,13.47,4.43,10.2
"2010-03-28 01:20:00",1800437,18.14,47.82,1.944,0.969,10.73,101.7081,3.658,4.924,36.45,0,109.8,13.47,4.42,9.8
"2010-03-28 01:20:30",1800438,18.33,47.59,2.981,0.868,10.64,101.7095,3.662,4.905,36.42,0,109.8,13.47,4.43,9.6
"2010-03-28 01:21:00",1800439,18.67,48.35,2.74,0.649,10.76,101.7144,3.674,4.913,36.52,0,109.8,13.47,4.44,10.3
"2010-03-28 01:21:30",1800440,18.47,47.62,3.407,0.691,10.75,101.7215,3.692,4.917,36.51,0,109.8,13.47,4.46,9.6
"2010-03-28 01:22:00",1800441,18.5,48.15,2.921,0.781,10.64,101.7274,3.707,4.929,36.66,0,109.8,13.47,4.47,10.2
"2010-03-28 01:22:30",1800442,18.13,47.96,3.327,0.639,10.73,101.7306,3.715,4.935,36.76,0,109.8,13.47,4.48,10.0
"2010-03-28 01:23:00",1800443,18.12,47.67,3.772,0.396,11.02,101.7326,3.72,4.92,36.75,0,109.8,13.47,4.49,9.7
"2010-03-28 01:23:30",1800444,17.56,47.21,2.759,0.805,10.64,101.7348,3.726,4.926,36.74,0,109.8,13.47,4.49,9.2
"2010-03-28 01:24:00",1800445,17.54,47.59,2.902,0.689,10.71,101.7362,3.73,4.951,36.82,0,109.8,13.47,4.49,9.6
"2010-03-28 01:24:30",1800446,17.54,47.77,3.221,0.648,10.69,101.7419,3.744,4.935,36.88,0,109.8,13.48,4.51,9.8
"2010-03-28 01:25:00",1800447,17.52,47.72,2.69,0.644,10.77,101.7493,3.763,4.926,36.85,0,109.8,13.48,4.53,9.7
"2010-03-28 01:25:30",1800448,17.12,46.01,3.882,0.637,10.84,101.7495,3.764,4.954,36.9,0,109.8,13.48,4.53,8.0
"2010-03-28 01:26:00",1800449,17.4,46.51,3.418,0.906,10.73,101.7521,3.77,4.964,36.81,0,109.8,13.48,4.54,8.5
"2010-03-28 01:26:30",1800450,16.78,45.64,3.555,0.869,10.71,101.7541,3.775,4.952,36.87,0,109.8,13.48,4.54,7.6
"2010-03-28 01:27:00",1800451,15.81,46.06,1.701,0.832,10.82,101.7556,3.779,4.953,36.82,0,109.8,13.48,4.54,8.1
"2010-03-28 01:27:30",1800452,16.43,46.1,2.651,0.913,10.6,101.7581,3.786,4.986,36.84,0,109.8,13.48,4.55,8.1
"2010-03-28 01:28:00",1800453,17.03,46.99,2.789,0.923,10.5,101.7649,3.803,5.001,36.97,0,109.8,13.48,4.57,9.0
"2010-03-28 01:28:30",1800454,17.55,47.63,2.997,0.821,10.44,101.7731,3.824,5.01,37.08,0,109.8,13.48,4.59,9.6
"2010-03-28 01:29:00",1800455,17.97,47.97,3.329,0.527,10.65,101.7728,3.823,5.001,37.18,0,109.8,13.48,4.59,10.0
"2010-03-28 01:29:30",1800456,17.9,47.32,3.383,0.735,10.66,101.7734,3.825,5.009,37.28,0,109.8,13.48,4.59,9.3
"2010-03-28 01:30:00",1800457,17.39,46.37,3.899,0.66,10.77,101.772,3.821,5.015,37.26,0,109.8,13.48,4.59,8.4
"2010-03-28 01:30:30",1800458,17.53,46.85,2.943,0.752,10.62,101.7703,3.817,5.02,37.21,0,109.8,13.48,4.58,8.8
"2010-03-28 01:31:00",1800459,17.73,47,3.384,0.555,10.8,101.7723,3.822,5.019,37.22,0,109.8,13.48,4.59,9.0
"2010-03-28 01:31:30",1800460,16.99,46.46,3.063,0.858,10.72,101.7723,3.822,5.032,37.3,0,109.8,13.48,4.59,8.5
"2010-03-28 01:32:00",1800461,16.24,45.79,2.647,0.847,10.62,101.7743,3.827,5.041,37.37,0,109.8,13.48,4.59,7.8
"2010-03-28 01:32:30",1800462,15.74,45.13,2.904,0.913,10.57,101.776,3.831,5.042,37.33,0,109.8,13.48,4.60,7.1
"2010-03-28 01:33:00",1800463,15.3,45.48,2.118,1.053,10.67,101.7768,3.833,5.028,37.31,0,109.8,13.48,4.60,7.5
"2010-03-28 01:33:30",1800464,15.6,45.17,2.84,0.868,10.43,101.7811,3.844,5.039,37.34,0,109.8,13.48,4.61,7.2
"2010-03-28 01:34:00",1800465,16.47,45.03,4.359,0.717,10.49,101.7845,3.853,5.042,37.34,0,109.8,13.48,4.62,7.0
"2010-03-28 01:34:30",1800466,17.24,46.82,3.431,0.786,10.53,101.7854,3.855,5.055,37.45,0,109.8,13.47,4.62,8.8
"2010-03-28 01:35:00",1800467,16.92,46.55,2.431,0.837,10.49,101.7786,3.838,5.05,37.64,0,109.8,13.47,4.60,8.5
"2010-03-28 01:35:30",1800468,14.97,43.9,3.26,0.964,10.46,101.7729,3.823,5.048,37.64,0,109.8,13.47,4.59,5.9
"2010-03-28 01:36:00",1800469,14.19,43.25,3.502,1.054,10.56,101.763,3.798,5.047,37.58,0,109.8,13.47,4.56,5.2
"2010-03-28 01:36:30",1800470,12.67,41.34,3.665,0.745,10.61,101.7642,3.801,5.046,37.5,0,109.8,13.47,4.57,3.3
"2010-03-28 01:37:00",1800471,12.61,40.23,3.344,0.542,10.67,101.7772,3.834,5.034,37.59,0,109.8,13.47,4.60,2.2
"2010-03-28 01:37:30",1800472,12.65,41.5,2.952,0.936,10.13,101.7885,3.863,5.045,37.55,0,109.8,13.47,4.63,3.5
"2010-03-28 01:38:00",1800473,12.59,41.73,3.619,0.732,10.06,101.7961,3.883,5.059,37.62,0,109.8,13.47,4.65,3.7
"2010-03-28 01:38:30",1800474,12.48,40.97,4.009,0.624,10.12,101.797,3.885,5.07,37.62,0,109.8,13.47,4.65,3.0
"2010-03-28 01:39:00",1800475,13.25,43,2.71,0.789,10.04,101.7973,3.886,5.069,37.7,0,109.8,13.48,4.65,5.0
"2010-03-28 01:39:30",1800476,12.78,42.29,2.873,0.934,9.95,101.7979,3.887,5.072,37.59,0,109.8,13.48,4.65,4.3
"2010-03-28 01:40:00",1800477,12.15,40.89,3.457,0.729,9.98,101.7987,3.889,5.103,37.5,0,109.8,13.48,4.65,2.9
"2010-03-28 01:40:30",1800478,11.92,40.79,2.952,0.698,9.98,101.8081,3.913,5.102,37.49,0,109.8,13.49,4.68,2.8
"2010-03-28 01:41:00",1800479,11.92,41.77,1.878,0.822,9.98,101.8213,3.947,5.104,37.47,0,109.8,13.49,4.71,3.8
"2010-03-28 01:41:30",1800480,12.53,42.48,2.09,0.851,9.71,101.8318,3.974,5.128,37.48,0,109.8,13.49,4.74,4.5
"2010-03-28 01:42:00",1800481,12.28,42.04,2.82,0.885,9.83,101.8324,3.975,5.147,37.41,0,109.8,13.49,4.74,4.0
"2010-03-28 01:42:30",1800482,11.95,40.7,3.168,0.686,9.87,101.8324,3.975,5.162,37.35,0,109.8,13.49,4.74,2.7
"2010-03-28 01:43:00",1800483,12.12,41.86,3.836,0.544,10.04,101.8324,3.975,5.161,37.33,0,109.8,13.49,4.74,3.9
"2010-03-28 01:43:30",1800484,13.59,44,3.745,0.923,9.73,101.8329,3.977,5.172,37.46,0,109.8,13.49,4.74,6.0
"2010-03-28 01:44:00",1800485,14.06,44.54,3.585,0.757,9.81,101.8349,3.982,5.183,37.58,0,109.8,13.49,4.75,6.5
"2010-03-28 01:44:30",1800486,12.44,42.95,3.026,0.907,9.86,101.8355,3.983,5.188,37.49,0,109.8,13.49,4.75,5.0
"2010-03-28 01:45:00",1800487,13.61,43.65,3.458,0.642,10.06,101.8358,3.984,5.196,37.6,0,109.8,13.49,4.75,5.7
"2010-03-28 01:45:30",1800488,12.34,41.75,3.231,0.605,10.05,101.8335,3.978,5.193,37.39,0,109.8,13.49,4.74,3.8
"2010-03-28 01:46:00",1800489,12.11,40.87,3.65,0.755,10.04,101.8369,3.987,5.214,37.13,0,109.8,13.49,4.75,2.9
"2010-03-28 01:46:30",1800490,13.51,43.42,3.524,0.679,9.94,101.8454,4.008,5.2,37.42,0,109.8,13.49,4.77,5.4
"2010-03-28 01:47:00",1800491,13.75,44.37,2.67,1.083,9.96,101.8428,4.002,5.206,37.45,0,109.8,13.49,4.77,6.4
"2010-03-28 01:47:30",1800492,12.88,42.67,3.481,0.897,9.92,101.8403,3.995,5.222,37.41,0,109.8,13.49,4.76,4.7
"2010-03-28 01:48:00",1800493,12.53,40.81,3.704,0.582,10.17,101.8349,3.982,5.225,37.29,0,109.8,13.49,4.75,2.8
"2010-03-28 01:48:30",1800494,12.35,40.05,3.247,0.816,9.92,101.8326,3.976,5.216,37.23,0,109.8,13.49,4.74,2.0
"2010-03-28 01:49:00",1800495,12.8,42.68,2.172,0.918,9.91,101.8326,3.976,5.224,37.29,0,109.8,13.49,4.74,4.7
"2010-03-28 01:49:30",1800496,12.44,40.43,4.125,0.52,9.92,101.8324,3.975,5.215,37.34,0,109.8,13.49,4.74,2.4